Time,TemperatureF,DewpointF,PressureIn,WindDirection,WindDirectionDegrees,WindSpeedMPH,WindSpeedGustMPH,Humidity,HourlyPrecipIn,Conditions,Clouds,dailyrainin,SolarRadiationWatts/m^2,SoftwareType,DateUTC
2013-07-26 00:09:00,64.3,62.0,30.01,NNW,344,1.0,-999.0,91,-99.99,,,0.00,0,weatherlink.com 1.10,2013-07-26 04:09:00,
2013-07-26 00:24:00,64.2,62.0,30.00,North,11,3.0,-999.0,91,-99.99,,,0.00,0,weatherlink.com 1.10,2013-07-26 04:24:00,
2013-07-26 00:39:00,64.0,62.0,30.00,NNW,342,2.0,-999.0,92,-99.99,,,0.00,0,weatherlink.com 1.10,2013-07-26 04:39:00,
2013-07-26 00:55:00,63.8,62.0,30.00,NNE,27,2.0,-999.0,93,-99.99,,,0.00,0,weatherlink.com 1.10,2013-07-26 04:55:00,
2013-07-26 01:09:00,63.6,62.0,29.99,NNW,346,4.0,-999.0,93,-99.99,,,0.00,0,weatherlink.com 1.10,2013-07-26 05:09:00,
2013-07-26 01:24:00,63.4,62.0,29.99,North,355,2.0,-999.0,94,-99.99,,,0.00,0,weatherlink.com 1.10,2013-07-26 05:24:00,
2013-07-26 01:39:00,63.3,62.0,29.98,NNW,341,5.0,-999.0,94,-99.99,,,0.00,0,weatherlink.com 1.10,2013-07-26 05:39:00,
2013-07-26 01:54:00,63.2,62.0,29.98,North,360,4.0,-999.0,95,-99.99,,,0.00,0,weatherlink.com 1.10,2013-07-26 05:54:00,
2013-07-26 02:09:00,63.1,62.0,29.97,North,355,4.0,-999.0,95,-99.99,,,0.00,0,weatherlink.com 1.10,2013-07-26 06:09:00,
2013-07-26 02:25:00,63.1,62.0,29.97,North,350,5.0,-999.0,95,-99.99,,,0.00,0,weatherlink.com 1.10,2013-07-26 06:25:00,
2013-07-26 02:39:00,63.2,62.0,29.97,NNW,338,2.0,-999.0,96,-99.99,,,0.00,0,weatherlink.com 1.10,2013-07-26 06:39:00,
2013-07-26 02:54:00,63.2,62.0,29.96,NNW,342,0.0,-999.0,96,-99.99,,,0.00,0,weatherlink.com 1.10,2013-07-26 06:54:00,
2013-07-26 03:09:00,63.3,62.0,29.96,North,355,6.0,-999.0,96,-99.99,,,0.00,0,weatherlink.com 1.10,2013-07-26 07:09:00,
2013-07-26 03:25:00,63.3,62.0,29.96,NNE,32,7.0,-999.0,96,-99.99,,,0.00,0,weatherlink.com 1.10,2013-07-26 07:25:00,
2013-07-26 03:39:00,63.4,62.0,29.95,North,11,0.0,-999.0,96,-99.99,,,0.00,0,weatherlink.com 1.10,2013-07-26 07:39:00,
2013-07-26 03:55:00,63.5,63.0,29.95,North,355,2.0,-999.0,97,-99.99,,,0.00,0,weatherlink.com 1.10,2013-07-26 07:55:00,
2013-07-26 04:10:00,63.6,63.0,29.95,North,349,0.0,-999.0,97,-99.99,,,0.00,0,weatherlink.com 1.10,2013-07-26 08:10:00,
2013-07-26 04:25:00,63.7,63.0,29.95,NNE,19,2.0,-999.0,97,-99.99,,,0.00,0,weatherlink.com 1.10,2013-07-26 08:25:00,
2013-07-26 04:40:00,63.9,63.0,29.95,North,360,3.0,-999.0,97,-99.99,,,0.00,0,weatherlink.com 1.10,2013-07-26 08:40:00,
2013-07-26 04:55:00,63.9,63.0,29.95,NNW,340,2.0,-999.0,97,-99.99,,,0.00,0,weatherlink.com 1.10,2013-07-26 08:55:00,
2013-07-26 05:10:00,64.0,63.0,29.94,NNW,345,5.0,-999.0,97,-99.99,,,0.00,0,weatherlink.com 1.10,2013-07-26 09:10:00,
2013-07-26 05:26:00,64.0,63.0,29.94,NNW,345,5.0,-999.0,97,-99.99,,,0.00,0,weatherlink.com 1.10,2013-07-26 09:26:00,
2013-07-26 05:41:00,64.0,63.0,29.93,NNE,13,11.0,-999.0,97,-99.99,,,0.00,0,weatherlink.com 1.10,2013-07-26 09:41:00,
2013-07-26 05:55:00,63.8,63.0,29.93,NNW,347,9.0,-999.0,97,-99.99,,,0.00,0,weatherlink.com 1.10,2013-07-26 09:55:00,
2013-07-26 06:11:00,63.7,63.0,29.94,North,5,6.0,-999.0,97,-99.99,,,0.00,0,weatherlink.com 1.10,2013-07-26 10:11:00,
2013-07-26 06:26:00,63.8,63.0,29.92,NNW,340,6.0,-999.0,98,-99.99,,,0.00,7,weatherlink.com 1.10,2013-07-26 10:26:00,
2013-07-26 06:56:00,63.9,63.0,29.93,NNW,347,4.0,-999.0,98,-99.99,,,0.00,5,weatherlink.com 1.10,2013-07-26 10:56:00,
2013-07-26 07:11:00,63.9,63.0,29.93,NNW,339,4.0,-999.0,98,-99.99,,,0.00,12,weatherlink.com 1.10,2013-07-26 11:11:00,
2013-07-26 07:26:00,64.0,64.0,29.93,North,355,2.0,-999.0,98,-99.99,,,0.00,12,weatherlink.com 1.10,2013-07-26 11:26:00,
2013-07-26 07:56:00,63.6,63.0,29.91,North,5,7.0,-999.0,98,-99.99,,,0.00,21,weatherlink.com 1.10,2013-07-26 11:56:00,
2013-07-26 08:11:00,63.4,63.0,29.91,NNW,342,8.0,-999.0,98,-99.99,,,0.00,26,weatherlink.com 1.10,2013-07-26 12:11:00,
2013-07-26 08:26:00,63.2,63.0,29.92,North,350,9.0,-999.0,98,-99.99,,,0.00,25,weatherlink.com 1.10,2013-07-26 12:26:00,
2013-07-26 09:11:00,63.0,63.0,29.90,NNW,333,9.0,-999.0,98,-99.99,,,0.00,62,weatherlink.com 1.10,2013-07-26 13:11:00,
2013-07-26 09:26:00,63.0,63.0,29.91,NNW,343,12.0,-999.0,98,-99.99,,,0.00,54,weatherlink.com 1.10,2013-07-26 13:26:00,
2013-07-26 09:41:00,63.0,63.0,29.90,NNW,346,8.0,-999.0,98,-99.99,,,0.00,86,weatherlink.com 1.10,2013-07-26 13:41:00,
2013-07-26 09:56:00,63.1,63.0,29.90,NNW,346,10.0,-999.0,98,-99.99,,,0.00,60,weatherlink.com 1.10,2013-07-26 13:56:00,
2013-07-26 10:11:00,63.1,63.0,29.90,North,5,6.0,-999.0,98,-99.99,,,0.00,100,weatherlink.com 1.10,2013-07-26 14:11:00,
2013-07-26 10:41:00,63.4,63.0,29.90,NNE,20,5.0,-999.0,98,-99.99,,,0.00,132,weatherlink.com 1.10,2013-07-26 14:41:00,
2013-07-26 10:56:00,63.6,63.0,29.90,North,351,10.0,-999.0,98,-99.99,,,0.00,134,weatherlink.com 1.10,2013-07-26 14:56:00,
2013-07-26 11:11:00,63.7,63.0,29.90,NNW,342,5.0,-999.0,98,-99.99,,,0.00,132,weatherlink.com 1.10,2013-07-26 15:11:00,
2013-07-26 11:26:00,63.9,63.0,29.89,North,360,6.0,-999.0,98,-99.99,,,0.00,144,weatherlink.com 1.10,2013-07-26 15:26:00,
2013-07-26 11:41:00,64.0,64.0,29.89,NNW,344,6.0,-999.0,98,-99.99,,,0.00,149,weatherlink.com 1.10,2013-07-26 15:41:00,
2013-07-26 11:56:00,64.2,64.0,29.89,NNW,339,5.0,-999.0,98,-99.99,,,0.00,162,weatherlink.com 1.10,2013-07-26 15:56:00,
2013-07-26 12:11:00,64.3,64.0,29.90,NNW,346,5.0,-999.0,98,-99.99,,,0.00,137,weatherlink.com 1.10,2013-07-26 16:11:00,
2013-07-26 12:26:00,64.4,64.0,29.89,North,350,7.0,-999.0,98,-99.99,,,0.00,160,weatherlink.com 1.10,2013-07-26 16:26:00,
2013-07-26 12:41:00,64.5,64.0,29.89,North,355,11.0,-999.0,98,-99.99,,,0.00,125,weatherlink.com 1.10,2013-07-26 16:41:00,
2013-07-26 12:56:00,64.5,64.0,29.89,NNW,348,8.0,-999.0,98,-99.99,,,0.00,155,weatherlink.com 1.10,2013-07-26 16:56:00,
2013-07-26 13:11:00,64.7,64.0,29.89,NNW,344,7.0,-999.0,98,-99.99,,,0.00,130,weatherlink.com 1.10,2013-07-26 17:11:00,
2013-07-26 13:26:00,64.9,64.0,29.88,NNW,348,7.0,-999.0,98,-99.99,,,0.00,137,weatherlink.com 1.10,2013-07-26 17:26:00,
2013-07-26 13:41:00,65.1,65.0,29.88,NNW,344,8.0,-999.0,98,-99.99,,,0.00,134,weatherlink.com 1.10,2013-07-26 17:41:00,
2013-07-26 14:11:00,65.3,65.0,29.88,NNW,337,5.0,-999.0,98,-99.99,,,0.00,155,weatherlink.com 1.10,2013-07-26 18:11:00,
2013-07-26 14:26:00,65.7,65.0,29.89,North,355,6.0,-999.0,98,-99.99,,,0.00,169,weatherlink.com 1.10,2013-07-26 18:26:00,
2013-07-26 14:41:00,66.2,66.0,29.88,NNW,348,4.0,-999.0,99,-99.99,,,0.00,125,weatherlink.com 1.10,2013-07-26 18:41:00,
2013-07-26 14:56:00,66.3,66.0,29.89,NNW,332,4.0,-999.0,98,-99.99,,,0.00,130,weatherlink.com 1.10,2013-07-26 18:56:00,
2013-07-26 15:11:00,66.3,66.0,29.89,NNW,341,2.0,-999.0,98,-99.99,,,0.00,84,weatherlink.com 1.10,2013-07-26 19:11:00,
2013-07-26 15:26:00,66.4,66.0,29.89,NNW,343,1.0,-999.0,98,-99.99,,,0.00,60,weatherlink.com 1.10,2013-07-26 19:26:00,
2013-07-26 15:41:00,66.4,66.0,29.89,NNW,344,0.0,-999.0,98,-99.99,,,0.00,79,weatherlink.com 1.10,2013-07-26 19:41:00,
2013-07-26 15:56:00,66.5,66.0,29.89,NNW,345,0.0,-999.0,98,-99.99,,,0.00,113,weatherlink.com 1.10,2013-07-26 19:56:00,
2013-07-26 16:11:00,66.8,67.0,29.89,NNW,345,2.0,-999.0,99,-99.99,,,0.00,139,weatherlink.com 1.10,2013-07-26 20:11:00,
2013-07-26 16:27:00,67.2,67.0,29.89,NNW,329,4.0,-999.0,99,-99.99,,,0.00,167,weatherlink.com 1.10,2013-07-26 20:27:00,
2013-07-26 16:42:00,67.4,67.0,29.89,NNW,346,0.0,-999.0,99,-99.99,,,0.00,149,weatherlink.com 1.10,2013-07-26 20:42:00,
2013-07-26 16:57:00,67.3,67.0,29.90,NNW,345,1.0,-999.0,99,-99.99,,,0.00,114,weatherlink.com 1.10,2013-07-26 20:57:00,
2013-07-26 17:12:00,67.2,67.0,29.90,NNW,346,0.0,-999.0,98,-99.99,,,0.00,67,weatherlink.com 1.10,2013-07-26 21:12:00,
2013-07-26 17:27:00,67.2,67.0,29.91,North,355,0.0,-999.0,99,-99.99,,,0.00,56,weatherlink.com 1.10,2013-07-26 21:27:00,
2013-07-26 17:42:00,67.1,67.0,29.91,West,279,0.0,-999.0,98,-99.99,,,0.00,67,weatherlink.com 1.10,2013-07-26 21:42:00,
2013-07-26 18:12:00,66.9,66.0,29.93,North,5,1.0,-999.0,98,-99.99,,,0.00,18,weatherlink.com 1.10,2013-07-26 22:12:00,
2013-07-26 18:27:00,66.7,66.0,29.93,NNW,335,1.0,-999.0,98,-99.99,,,0.00,9,weatherlink.com 1.10,2013-07-26 22:27:00,
2013-07-26 18:42:00,66.7,66.0,29.94,NW,319,2.0,-999.0,98,-99.99,,,0.00,11,weatherlink.com 1.10,2013-07-26 22:42:00,
2013-07-26 18:57:00,66.7,66.0,29.94,North,351,2.0,-999.0,98,-99.99,,,0.00,11,weatherlink.com 1.10,2013-07-26 22:57:00,
2013-07-26 19:12:00,66.5,66.0,29.94,NNW,344,0.0,-999.0,98,-99.99,,,0.00,7,weatherlink.com 1.10,2013-07-26 23:12:00,
2013-07-26 19:42:00,66.4,66.0,29.94,NNW,345,7.0,-999.0,98,-99.99,,,0.00,0,weatherlink.com 1.10,2013-07-26 23:42:00,
2013-07-26 19:57:00,66.2,66.0,29.94,NNW,343,0.0,-999.0,98,-99.99,,,0.00,0,weatherlink.com 1.10,2013-07-26 23:57:00,
2013-07-26 20:12:00,66.3,66.0,29.95,NNW,343,0.0,-999.0,98,-99.99,,,0.00,0,weatherlink.com 1.10,2013-07-27 00:12:00,
2013-07-26 20:27:00,66.3,66.0,29.95,NNW,343,0.0,-999.0,98,-99.99,,,0.00,0,weatherlink.com 1.10,2013-07-27 00:27:00,
2013-07-26 20:42:00,66.4,66.0,29.95,NNW,343,0.0,-999.0,98,-99.99,,,0.00,0,weatherlink.com 1.10,2013-07-27 00:42:00,
2013-07-26 20:57:00,66.7,66.0,29.95,NNW,343,0.0,-999.0,98,-99.99,,,0.00,0,weatherlink.com 1.10,2013-07-27 00:57:00,
2013-07-26 21:12:00,66.8,66.0,29.96,NNW,343,0.0,-999.0,98,-99.99,,,0.00,0,weatherlink.com 1.10,2013-07-27 01:12:00,
2013-07-26 21:41:00,66.7,66.0,29.96,NNW,342,0.0,-999.0,98,-99.99,,,0.00,0,weatherlink.com 1.10,2013-07-27 01:41:00,
2013-07-26 21:56:00,66.6,66.0,29.96,NNW,342,0.0,-999.0,98,-99.99,,,0.00,0,weatherlink.com 1.10,2013-07-27 01:56:00,
2013-07-26 22:12:00,66.2,66.0,29.96,NNW,342,0.0,-999.0,98,-99.99,,,0.00,0,weatherlink.com 1.10,2013-07-27 02:12:00,
2013-07-26 22:27:00,65.9,65.0,29.97,NNW,342,0.0,-999.0,98,-99.99,,,0.00,0,weatherlink.com 1.10,2013-07-27 02:27:00,
2013-07-26 22:42:00,65.7,65.0,29.97,NNW,342,0.0,-999.0,98,-99.99,,,0.00,0,weatherlink.com 1.10,2013-07-27 02:42:00,
2013-07-26 22:57:00,65.4,65.0,29.97,NNW,342,0.0,-999.0,98,-99.99,,,0.00,0,weatherlink.com 1.10,2013-07-27 02:57:00,
2013-07-26 23:12:00,65.3,65.0,29.97,NNW,342,0.0,-999.0,98,-99.99,,,0.00,0,weatherlink.com 1.10,2013-07-27 03:12:00,
2013-07-26 23:27:00,65.1,65.0,29.98,NNW,342,0.0,-999.0,98,-99.99,,,0.00,0,weatherlink.com 1.10,2013-07-27 03:27:00,
2013-07-26 23:42:00,64.9,64.0,29.98,NNW,342,0.0,-999.0,98,-99.99,,,0.00,0,weatherlink.com 1.10,2013-07-27 03:42:00,
2013-07-26 23:57:00,64.6,64.0,29.98,NNW,341,0.0,-999.0,98,-99.99,,,0.00,0,weatherlink.com 1.10,2013-07-27 03:57:00,